COSMOS 89

Satellite information

Favourite Embed

Satellite Type and Status

PAYLOADIN ORBIT

Key statistics

Satellite COSMOS 89 at a glance.

Uptime

22007

Days in orbit

Revolutions

≈ 12.4

Per day

Orbit

LEO

Low Earth Orbit

Inclination

56.1

Latest

Satellite identification and parameters

Extended collection of information and parameters for COSMOS 89.

Object identification

Identified? True

Debris? False

Object name: COSMOS 89

International designator: 1965-073D

Object number (NORAD): 1587

Object ID (CCSDS): 1587

Country: COMMONWEALTH OF INDEPENDENT STATES (CIS)

Current information (Y/N): Y

RCS size: MEDIUM

Orbital parameters

Period: 116.224 minutes

Inclination: 56.0567 deg

SMA: 7889.038 km

Apoapsis: 1644.48 km

Periapsis: 1377.325 km

RAAN: 262.152 deg

Eccentricy: 0.01693205

Argument of periapsis: 71.5096 deg

Mean anomaly: 290.4123 deg

Mean motion: 12.38986897 rev/day

Mean motion (dot): -0.00000068 rev/day2

B* drag term: 0.00018158978 1/REarth

Two-line elements (TLE)

Creation date: Dec. 19, 2025, 2:08 a.m.

Reference frame: TEME

Reference center: EARTH

Epoch: Dec. 18, 2025, 9:41 p.m. UTC

TLE line 0: 0 COSMOS 89

TLE line 1: 1 01587U 65073D 25352.90403279 -.00000068 00000-0 18159-3 0 9995

TLE line 2: 2 01587 56.0567 262.1520 0169321 71.5096 290.4123 12.38986897726513

Live tracking on map

Real-time ground track for satellite COSMOS 89.

In-orbit conjunctions

A list of the most updated potential collisions computed for object COSMOS 89.

Target Orbit TCA Probability of collision Miss distance Type
SL-14 DEB LEO 2025-10-12 22:20:52 0.0002400968 139.0 (m) DEBRIS

Associated space launch

The Strela-1 satellites were prototype store-dump communications satellites for tactical communication.

COSMOS 89 was lifted into orbit during the mission ‘Kosmos 65S3 | Strela-1 25 to 29’, on board a Kosmos 65S3 space rocket.

The launch took place on Sept. 18, 1965, 7:59 a.m. from 41/15.

For more information about the launch, click the button.

Launch to space Kosmos 65S3 | Strela-1 25 to 29
Kosmos 65S3 | Strela-1 25 to 29

Agency: N/A

Status: Launch Successful

Launch date: Sept. 18, 1965, 7:59 a.m. UTC

Rocket: Kosmos 65S3

Launch pad: 41/15

Location: Baikonur Cosmodrome, Republic of Kazakhstan

...

Latest news about this satellite

There are no fresh news available about this satellite. Check back as we update our databases every day.


Newsletter sign-up

Weekly statistics, charts and insights to help you stay on top of the space industry.